Location: Clanezzo
(45.7500°N, 9.6000°E)
Time: 14:07:47
(UTC+00:00)

Cosmos 1238 Rocket - Pass Details

Date: 12 May 2021
Orbit: 374 x 1021 km, 82.9° (Epoch: 19 June)

Event Time Altitude Azimuth Distance (km) Brightness Sun altitude
Rises 21:17:25 0° 355° (N) 3,688 8.1 -20.3°
Reaches altitude 10° 21:20:14 10° 2° (N) 2,672 7.1 -20.6°
Maximum altitude 21:26:04 44° 73° (ENE) 1,171 4.3 -21.0°
Enters shadow 21:27:34 36° 112° (ESE) 1,288 4.3 -21.2°
